Winter Haven, FL

12:35 AM EDT on August 21, 2017 (GMT -0400)
Winter Haven's-Gilbert

Weather History for KGIF - August, 2017

Change the Weather History Date:

Sunday, August 13, 2017

  Actual Average Record
Temperature  
Mean Temperature 82 °F -  
Max Temperature 91 °F 90 °F 98 °F (1961)
Min Temperature 75 °F 71 °F 67 °F (1969)
Cooling Degree Days 18    
Growing Degree Days 32 (Base 50)    
Moisture  
Dew Point 74 °F    
Average Humidity 78    
Maximum Humidity 91    
Minimum Humidity 54    
Precipitation  
Precipitation 0.00 in - - ()
Sea Level Pressure  
Sea Level Pressure 30.00 in    
Wind  
Wind Speed 5 mph (SW)    
Max Wind Speed 8 mph    
Max Gust Speed 22 mph    
Visibility 10 miles    
Events Rain , Thunderstorm    
Averages and records for this station are not official NWS values.
T = Trace of Precipitation, MM = Missing Value Source: NWS Daily Summary

Daily Weather History Graph

Daily Weather History Graph

Search for Another Location

Airport or City:

Trip Planner

Search our weather history database for the weather conditions in past years. The results will help you decide how hot, cold, wet, or windy it might be!

Date:

Astronomy

Aug. 13, 2017 Rise Set
Actual Time 6:56 AM EDT 8:07 PM EDT
Civil Twilight 6:31 AM EDT 8:31 PM EDT
Nautical Twilight 6:02 AM EDT 9:00 PM EDT
Astronomical Twilight 5:31 AM EDT 9:31 PM EDT
Moon No Moon Rise 12:24 PM EDT (8/13)
Length of Visible Light 14h 00m
Length of Day
13h 10m
Waning Gibbous, 65% of the Moon is Illuminated
Aug 13
Waning Gibbous
Aug 14
Last Quarter
Aug 21
New
Aug 29
First Quarter
Sep 6
Full

Hourly Weather History & Observations

Time (EDT) Temp. Heat Index Dew Point Humidity Pressure Visibility Wind Dir Wind Speed Gust Speed Precip Events Conditions
12:53 AM 78.1 °F - 73.9 °F 87% 30.01 in 10.0 mi SSE 4.6 mph - N/A   Clear
1:53 AM 77.0 °F - 73.9 °F 90% 29.99 in 10.0 mi SSW 5.8 mph - N/A   Clear
2:21 AM 77.0 °F - 73.0 °F 88% 30.00 in 10.0 mi SSW 5.8 mph - N/A   Mostly Cloudy
2:33 AM 77.0 °F - 73.0 °F 88% 29.99 in 10.0 mi SSW 3.5 mph - N/A   Scattered Clouds
2:53 AM 77.0 °F - 73.0 °F 88% 29.98 in 10.0 mi SSW 5.8 mph - N/A   Clear
3:53 AM 77.0 °F - 73.0 °F 88% 29.97 in 10.0 mi South 3.5 mph - N/A   Clear
4:53 AM 77.0 °F - 73.0 °F 88% 29.97 in 10.0 mi SW 4.6 mph - N/A   Clear
5:53 AM 75.9 °F - 73.0 °F 91% 29.98 in 10.0 mi SSW 4.6 mph - N/A   Clear
6:53 AM 77.0 °F - 73.0 °F 88% 29.99 in 10.0 mi SSW 3.5 mph - N/A   Clear
7:53 AM 78.1 °F - 73.9 °F 87% 30.01 in 10.0 mi Variable 3.5 mph - N/A   Clear
8:53 AM 81.0 °F 86.7 °F 75.0 °F 82% 30.01 in 10.0 mi SW 3.5 mph - N/A   Clear
9:53 AM 84.0 °F 91.9 °F 75.0 °F 74% 30.02 in 10.0 mi SW 3.5 mph - N/A   Clear
10:53 AM 86.0 °F 93.0 °F 73.0 °F 65% 30.03 in 10.0 mi SSW 4.6 mph - N/A   Partly Cloudy
11:53 AM 89.1 °F 96.0 °F 72.0 °F 57% 30.02 in 10.0 mi Variable 3.5 mph - N/A   Partly Cloudy
12:53 PM 90.0 °F 96.4 °F 71.1 °F 54% 30.01 in 10.0 mi SSW 6.9 mph - N/A   Scattered Clouds
1:53 PM 82.0 °F 87.4 °F 73.0 °F 74% 30.03 in 10.0 mi NW 8.1 mph 21.9 mph N/A Thunderstorm Overcast
2:31 PM 81.0 °F 86.2 °F 73.9 °F 79% 30.02 in 10.0 mi NW 5.8 mph - 0.00 in Rain Light Rain
2:53 PM 82.9 °F 88.0 °F 72.0 °F 69% 30.00 in 10.0 mi NW 6.9 mph - 0.00 in Rain Light Rain
3:53 PM 84.0 °F 90.2 °F 73.0 °F 69% 29.99 in 10.0 mi West 5.8 mph - 0.00 in   Clear
4:53 PM 88.0 °F 95.6 °F 73.0 °F 61% 29.97 in 10.0 mi WSW 3.5 mph - N/A   Clear
5:53 PM 86.0 °F 95.1 °F 75.0 °F 70% 29.98 in 10.0 mi NNW 6.9 mph - N/A   Clear
6:53 PM 84.0 °F 91.2 °F 73.9 °F 72% 29.98 in 10.0 mi NW 4.6 mph - N/A   Clear
7:53 PM 84.0 °F 91.2 °F 73.9 °F 72% 29.99 in 10.0 mi Calm Calm - N/A   Clear
8:53 PM 82.9 °F 90.2 °F 75.0 °F 77% 30.00 in 10.0 mi Calm Calm - N/A   Clear
9:53 PM 82.0 °F 88.6 °F 75.0 °F 79% 30.02 in 10.0 mi Calm Calm - N/A   Clear
10:33 PM 82.0 °F 89.4 °F 75.9 °F 82% 30.03 in 10.0 mi ESE 4.6 mph - N/A   Mostly Cloudy
10:53 PM 82.0 °F 89.4 °F 75.9 °F 82% 30.02 in 10.0 mi SE 4.6 mph - N/A   Scattered Clouds
11:53 PM 82.0 °F 88.6 °F 75.0 °F 79% 30.03 in 10.0 mi South 4.6 mph - N/A   Clear